Location: Asheville, NC
(35.6000°N, 82.5500°W)
Time: 19:47:22
(UTC-04:00)

Vanguard 3 - Pass Details

Date: 09 March 2018
Orbit: 508 x 3264 km, 33.3° (Epoch: 23 June)

Event Time Altitude Azimuth Distance (km) Brightness Sun altitude
Rises 11:35:11 0° 257° (WSW) 6,925 11.8 47.2°
Reaches altitude 10° 11:40:17 10° 257° (WSW) 5,629 11.5 47.6°
Maximum altitude 11:56:05 78° 174° (S) 1,933 10.3 48.7°
Drops below altitude 10° 12:04:48 10° 90° (E) 3,294 10.5 49.2°
Sets 12:07:02 0° 89° (E) 3,993 10.8 49.3°
